This is the latest recevied weather packets stored in our database for station/object K1JO. If no packets are shown the sender has not sent any weather packets the latest 10 day(s).
| Time | Temp. | Humidity | Pressure | Rain* | Wind** | Luminosity | Snow |
|---|---|---|---|---|---|---|---|
| 1777552598 | 6.67° C | 95% | 1007.5 hPa | 0 mm | - | 91 W/m² | - |
| 1777552295 | 6.67° C | 95% | 1007.5 hPa | 0 mm | - | 85 W/m² | - |
| 1777551991 | 6.67° C | 95% | 1007.3 hPa | 0 mm | - | 113 W/m² | - |
| 1777551689 | 6.11° C | 95% | 1007.8 hPa | 0 mm | - | 115 W/m² | - |
| 1777551387 | 6.11° C | 96% | 1007.4 hPa | 0 mm | - | 101 W/m² | - |
| 1777551083 | 6.11° C | 96% | 1007.7 hPa | 0 mm | - | 126 W/m² | - |
| 1777550780 | 6.11° C | 96% | 1007.9 hPa | 0 mm | - | 89 W/m² | - |
| 1777550476 | 6.11° C | 95% | 1007.8 hPa | 0 mm | - | 78 W/m² | - |
| 1777550172 | 6.11° C | 95% | 1007.8 hPa | 0 mm | - | 70 W/m² | - |
| 1777549869 | 6.11° C | 95% | 1007.5 hPa | 0 mm | - | 72 W/m² | - |
| 1777549565 | 6.11° C | 96% | 1007.7 hPa | 0 mm | - | 95 W/m² | - |
| 1777549261 | 6.11° C | 96% | 1007.7 hPa | 0 mm | - | 83 W/m² | - |
| 1777548958 | 6.11° C | 96% | 1007.7 hPa | 0 mm | - | 68 W/m² | - |
| 1777548655 | 6.11° C | 96% | 1007.8 hPa | 0 mm | - | 69 W/m² | - |
| 1777548351 | 6.11° C | 96% | 1007.9 hPa | 0 mm | - | 66 W/m² | - |
| 1777548049 | 6.11° C | 96% | 1007.9 hPa | 0 mm | - | 47 W/m² | - |
| 1777547745 | 6.11° C | 96% | 1008.2 hPa | 0 mm | - | 36 W/m² | - |
| 1777547441 | 6.11° C | 96% | 1008.1 hPa | 0 mm | - | 37 W/m² | - |
| 1777547139 | 6.11° C | 96% | 1008 hPa | 0 mm | - | 48 W/m² | - |
| 1777546836 | 6.11° C | 96% | 1007.8 hPa | 0 mm | - | 45 W/m² | - |
| 1777546532 | 6.11° C | 96% | 1008 hPa | 0 mm | - | 51 W/m² | - |
| 1777546229 | 6.11° C | 97% | 1008 hPa | 0 mm | - | 43 W/m² | - |
| 1777545927 | 5.56° C | 97% | 1008.1 hPa | 0 mm | - | 39 W/m² | - |
| 1777545623 | 5.56° C | 97% | 1008 hPa | 0 mm | - | 32 W/m² | - |
| 1777545319 | 5.56° C | 97% | 1007.8 hPa | 0 mm | - | 32 W/m² | - |
* Rain latest hour (hover to see other rain measurements)
** Current wind speed in m/s (hover to see current wind gust speed)